TimePST,TemperatureF,Dew PointF,Humidity,Sea Level PressureIn,VisibilityMPH,Wind Direction,Wind SpeedMPH,Gust SpeedMPH,PrecipitationIn,Events,Conditions,WindDirDegrees,DateUTC
12:53 AM,34.0,32.0,92,30.12,10.0,Calm,Calm,-,N/A,,Overcast,0,2011-12-14 08:53:00
1:25 AM,35.6,32.0,87,30.12,10.0,Calm,Calm,-,N/A,,Overcast,0,2011-12-14 09:25:00
1:53 AM,35.1,33.1,92,30.13,10.0,Calm,Calm,-,N/A,,Overcast,0,2011-12-14 09:53:00
2:53 AM,36.0,33.1,89,30.15,10.0,East,3.5,-,N/A,,Overcast,90,2011-12-14 10:53:00
3:53 AM,36.0,33.1,89,30.12,10.0,East,4.6,-,N/A,,Overcast,90,2011-12-14 11:53:00
4:28 AM,35.6,32.0,87,30.11,10.0,East,4.6,-,N/A,,Overcast,80,2011-12-14 12:28:00
4:53 AM,36.0,32.0,86,30.12,10.0,ENE,4.6,-,N/A,,Overcast,70,2011-12-14 12:53:00
5:10 AM,35.6,32.0,87,30.11,10.0,ENE,3.5,-,N/A,,Overcast,70,2011-12-14 13:10:00
5:53 AM,36.0,32.0,86,30.11,10.0,East,4.6,-,N/A,,Overcast,90,2011-12-14 13:53:00
6:00 AM,32.0,32.0,100,-9999,-9999.0,North,-9999.0,-,N/A,,Unknown,0,2011-12-14 14:00:00
6:53 AM,36.0,33.1,89,30.11,10.0,Calm,Calm,-,N/A,,Overcast,0,2011-12-14 14:53:00
7:53 AM,36.0,33.1,89,30.11,10.0,East,3.5,-,N/A,,Overcast,80,2011-12-14 15:53:00
8:13 AM,35.6,33.8,93,30.11,10.0,Calm,Calm,-,N/A,,Overcast,0,2011-12-14 16:13:00
8:29 AM,35.6,33.8,93,30.12,10.0,Calm,Calm,-,N/A,,Overcast,0,2011-12-14 16:29:00
8:53 AM,36.0,33.1,89,30.12,10.0,Calm,Calm,-,N/A,,Overcast,0,2011-12-14 16:53:00
9:53 AM,37.0,33.1,86,30.11,10.0,Calm,Calm,-,N/A,,Overcast,0,2011-12-14 17:53:00
10:53 AM,39.0,33.1,79,30.11,10.0,Calm,Calm,-,N/A,,Overcast,0,2011-12-14 18:53:00
11:18 AM,39.2,33.8,81,30.09,10.0,Calm,Calm,-,N/A,,Overcast,0,2011-12-14 19:18:00
11:53 AM,42.1,36.0,79,30.09,10.0,SSE,4.6,-,N/A,,Overcast,150,2011-12-14 19:53:00
12:23 PM,42.8,35.6,76,30.07,10.0,SE,6.9,-,N/A,,Overcast,140,2011-12-14 20:23:00
12:45 PM,42.8,35.6,76,30.06,10.0,SE,3.5,-,N/A,,Overcast,140,2011-12-14 20:45:00
12:53 PM,43.0,36.0,76,30.06,10.0,SE,4.6,-,N/A,,Overcast,130,2011-12-14 20:53:00
1:53 PM,42.1,35.1,76,30.05,10.0,SE,4.6,-,N/A,,Overcast,140,2011-12-14 21:53:00
2:02 PM,42.8,35.6,76,30.04,10.0,SE,5.8,-,N/A,,Overcast,140,2011-12-14 22:02:00
2:12 PM,42.8,35.6,76,30.03,10.0,SE,8.1,-,N/A,,Overcast,130,2011-12-14 22:12:00
2:53 PM,43.0,35.1,74,30.03,10.0,SSE,5.8,-,N/A,,Overcast,150,2011-12-14 22:53:00
3:53 PM,43.0,35.1,74,30.02,10.0,SE,8.1,-,N/A,,Overcast,130,2011-12-14 23:53:00
4:53 PM,43.0,36.0,76,30.01,10.0,SE,5.8,-,N/A,,Overcast,140,2011-12-15 00:53:00
5:51 PM,42.8,35.6,76,30.01,10.0,SSE,6.9,-,N/A,,Overcast,150,2011-12-15 01:51:00
5:53 PM,43.0,36.0,76,30.01,10.0,SE,5.8,-,N/A,,Overcast,140,2011-12-15 01:53:00
6:53 PM,42.1,37.9,85,30.02,7.0,SE,3.5,-,0.00,Rain,Light Rain,140,2011-12-15 02:53:00
7:53 PM,41.0,37.9,89,30.03,6.0,SE,8.1,-,0.02,Rain,Light Rain,140,2011-12-15 03:53:00
8:53 PM,39.9,37.9,93,30.03,10.0,ESE,5.8,-,0.02,Rain,Light Rain,120,2011-12-15 04:53:00
9:00 PM,-9999,-9999,N/A,-9999,-9999.0,North,-9999.0,-,N/A,,Unknown,0,2011-12-15 05:00:00
9:53 PM,39.9,39.0,97,30.03,10.0,ESE,5.8,-,0.03,Rain,Light Rain,120,2011-12-15 05:53:00
10:53 PM,39.9,37.9,93,30.04,10.0,ESE,9.2,-,0.02,Rain,Light Rain,110,2011-12-15 06:53:00
11:01 PM,39.2,37.4,93,30.03,10.0,East,6.9,-,0.00,Rain,Light Rain,100,2011-12-15 07:01:00
11:14 PM,39.2,37.4,93,30.03,9.0,ESE,6.9,-,0.00,Rain,Light Rain,110,2011-12-15 07:14:00
11:53 PM,39.9,37.9,93,30.05,10.0,East,4.6,-,0.00,Rain,Light Rain,80,2011-12-15 07:53:00